Starlink 4296

operational
NORAD ID: 52995 Int'l Des: 2022-076 Owner: SPXS Country: US Constellation: starlink
LEOCIRCULAR

Starlink 4296について

説明を読み込み中...

リアルタイム位置

3D地球を読み込み中...

次回通過

高度履歴

Altitude vs Time

uPlot chart will show altitude changes over time

軌道要素

1 52995U 22076K 25260.01161055 -.00001683 00000-0 -87717-4 0 9995
2 52995 53.2179 153.7948 0001489 99.0295 261.0865 15.08825801176620
Epoch: Sep 17, 2025 • Age: 16 hours

現在のステータス

高度 540.1 km
速度 7.59 km/s
衛星直下点 7.00°N, 84.02°W
打ち上げ日 Jul 7, 2022
運用期間 3.1 years
タイプ internet

技術仕様

分類 Payload
質量 297.00 kg
乾燥質量 275.00 kg
総質量 297.00 kg
長さ 0.20 m
直径 2.80 m
スパン 9.00 m
形状 Box + pan
製造者 SPXS
バスタイプ Starlink
フェーズステータス In Orbit
所有者/国 SPXS/US

大規模コンステレーション

Loading constellations...